Location: ?????????
(54.7630°N, 39.4991°E)
Time: 14:52:59
(UTC+00:00)

Cosmos 1802 Rocket - Pass Details

Date: 14 April 2026
Orbit: 952 x 1012 km, 82.9° (Epoch: 17 May)

Event Time Altitude Azimuth Distance (km) Brightness Sun altitude
Exits shadow 21:34:58 55° 219° (SW) 1,190 4.1 -25.5°
Maximum altitude 21:36:24 73° 283° (WNW) 1,038 4.0 -25.5°
Drops below altitude 10° 21:42:43 10° 9° (N) 2,747 7.4 -25.4°
Sets 21:45:14 0° 11° (NNE) 3,690 8.4 -25.4°
